Date String (YYYY-MM-DD hh:mm:ss) UTC,Instrument flags,absolute air pressure of the measurement (hPa),sample flow rate (lpm),inlet stack bypass flow (lpm),air temperature of the measurement (°C),ambient temperature measured by the external sensor (°C),aerosol sample conditioner tube jacket temperature (°C),OPC LED temperature (°C),internal box temperature (°C),relative humidity of the measurement (%),span deviation,mass concentration of particles derived from Lorenz-Mie calculation of OPC scattering (μg/m³),mass concentration of particles derived from Lorenz-Mie calculation of OPC scattering (μg/m³),mass concentration of particles derived from Lorenz-Mie calculation of OPC scattering (μg/m³)
DateTimeUTC,F1_M11,P_M11,Q1_M11,Q2_M11,T1_M11,T2_M11,T3_M11,T4_M11,T5_M11,U1_M11,ZSPAN_M11,X0_M11,X2_M11,X1_M11
2023-10-23 08:00:00,SystemResetWarning,0823.9,5.01,000.00,029.1,027.5,000.0,037.5,030.7,12.4,0000.0,0011.32,0004.94,0003.79
2023-10-23 08:01:00,SystemResetWarning,0824.0,5.00,000.00,029.1,027.5,000.0,037.5,030.7,12.3,0000.0,0010.54,0004.94,0003.78
2023-10-23 08:02:00,SystemResetWarning,0823.9,5.00,000.00,029.1,027.5,000.0,037.5,030.6,12.2,0000.0,0010.63,0004.93,0003.79
2023-10-23 08:03:00,SystemResetWarning,0823.9,5.00,000.00,029.1,027.5,000.0,037.5,030.6,12.2,0000.0,0010.91,0004.92,0003.78
2023-10-23 08:04:00,SystemResetWarning,0823.9,5.00,000.00,029.1,027.5,000.0,037.5,030.6,12.2,0000.0,0011.45,0004.90,0003.77
2023-10-23 08:05:00,SystemResetWarning,0823.9,5.00,000.00,029.0,027.5,000.0,037.5,030.6,12.2,0000.0,0011.45,0004.83,0003.76
2023-10-23 08:06:00,SystemResetWarning,0824.0,5.00,000.00,029.0,027.5,000.0,037.5,030.6,12.2,0000.0,0010.74,0004.80,0003.76
2023-10-23 08:07:00,SystemResetWarning,0823.9,4.99,000.00,029.0,027.5,000.0,037.5,030.6,12.1,0000.0,0010.66,0004.81,0003.76
2023-10-23 08:08:00,SystemResetWarning,0823.9,5.00,000.00,029.0,027.5,000.0,037.5,030.6,12.2,0000.0,0010.60,0004.82,0003.76
2023-10-23 08:09:00,SystemResetWarning,0823.9,5.00,000.00,029.0,027.5,000.0,037.5,030.6,12.1,0000.0,0010.58,0004.77,0003.75
2023-10-23 08:10:00,SystemResetWarning,0823.8,5.00,000.00,029.0,027.4,000.0,037.5,030.6,12.3,0000.0,0010.74,0004.79,0003.76
2023-10-23 08:11:00,SystemResetWarning,0823.8,5.00,000.00,029.0,027.4,000.0,037.5,030.6,12.2,0000.0,0010.66,0004.78,0003.77
2023-10-23 08:12:00,SystemResetWarning,0823.8,5.00,000.00,029.0,027.4,000.0,037.5,030.6,12.3,0000.0,0010.72,0004.82,0003.78
2023-10-23 08:13:00,SystemResetWarning,0823.8,5.00,000.00,029.0,027.4,000.0,037.5,030.6,12.3,0000.0,0010.67,0004.84,0003.79
2023-10-23 08:14:00,SystemResetWarning,0823.8,5.00,000.00,029.0,027.4,000.0,037.5,030.6,12.2,0000.0,0010.30,0004.84,0003.80
2023-10-23 08:15:00,SystemResetWarning,0823.8,5.00,000.00,029.0,027.4,000.0,037.5,030.5,12.2,0000.0,0010.34,0004.85,0003.81
2023-10-23 08:16:00,SystemResetWarning,0823.7,5.01,000.00,029.0,027.4,000.0,037.5,030.5,12.5,0000.0,0010.39,0004.90,0003.82
2023-10-23 08:17:00,SystemResetWarning,0823.8,5.00,000.00,029.0,027.4,000.0,037.5,030.5,12.5,0000.0,0010.59,0004.93,0003.82
2023-10-23 08:18:00,SystemResetWarning,0823.7,5.00,000.00,029.0,027.4,000.0,037.5,030.5,12.5,0000.0,0010.63,0004.94,0003.82
2023-10-23 08:19:00,SystemResetWarning,0823.7,5.01,000.00,029.0,027.3,000.0,037.5,030.5,12.5,0000.0,0010.79,0004.99,0003.82
2023-10-23 08:20:00,SystemResetWarning,0823.7,4.99,000.00,029.0,027.3,000.0,037.5,030.5,12.5,0000.0,0010.87,0005.06,0003.84
2023-10-23 08:21:00,SystemResetWarning,0823.7,5.00,000.00,029.0,027.3,000.0,037.5,030.5,12.5,0000.0,0011.21,0005.05,0003.85
2023-10-23 08:22:00,SystemResetWarning,0823.7,5.00,000.00,029.0,027.3,000.0,037.5,030.5,12.6,0000.0,0011.61,0005.04,0003.85
2023-10-23 08:23:00,SystemResetWarning,0823.7,5.00,000.00,028.9,027.3,000.0,037.5,030.5,12.5,0000.0,0012.19,0005.00,0003.85
2023-10-23 08:24:00,SystemResetWarning,0823.7,5.00,000.00,028.9,027.3,000.0,037.4,030.5,12.6,0000.0,0013.64,0004.95,0003.86
2023-10-23 08:25:00,SystemResetWarning,0823.7,4.99,000.00,028.9,027.3,000.0,037.4,030.5,12.6,0000.0,0013.60,0004.92,0003.86
2023-10-23 08:26:00,SystemResetWarning,0823.8,5.00,000.00,028.9,027.3,000.0,037.4,030.5,12.7,0000.0,0013.11,0004.91,0003.87
2023-10-23 08:27:00,SystemResetWarning,0823.8,5.00,000.00,028.9,027.3,000.0,037.4,030.5,12.7,0000.0,0012.57,0004.86,0003.88
2023-10-23 08:28:00,SystemResetWarning,0823.8,5.00,000.00,028.9,027.3,000.0,037.4,030.5,12.8,0000.0,0012.50,0004.87,0003.88
2023-10-23 08:29:00,SystemResetWarning,0823.8,5.01,000.00,028.9,027.3,000.0,037.4,030.5,12.8,0000.0,0012.76,0004.87,0003.88
2023-10-23 08:30:00,SystemResetWarning,0823.8,5.01,000.00,028.9,027.3,000.0,037.4,030.5,12.8,0000.0,0013.88,0004.84,0003.90
2023-10-23 08:31:00,SystemResetWarning,0823.8,5.00,000.00,028.9,027.3,000.0,037.4,030.5,12.8,0000.0,0014.32,0004.80,0003.91
2023-10-23 08:32:00,SystemResetWarning,0823.7,4.99,000.00,028.9,027.3,000.0,037.4,030.5,12.8,0000.0,0013.99,0004.81,0003.89
2023-10-23 08:33:00,SystemResetWarning,0823.8,4.99,000.00,028.9,027.3,000.0,037.4,030.5,12.9,0000.0,0013.85,0004.82,0003.90
2023-10-23 08:34:00,SystemResetWarning,0823.8,4.99,000.00,028.9,027.3,000.0,037.4,030.5,12.9,0000.0,0014.26,0004.86,0003.90
2023-10-23 08:35:00,SystemResetWarning,0823.8,5.00,000.00,028.9,027.3,000.0,037.4,030.5,12.9,0000.0,0013.51,0004.95,0003.91
2023-10-23 08:36:00,SystemResetWarning,0823.8,5.00,000.00,028.9,027.3,000.0,037.4,030.5,12.9,0000.0,0014.18,0004.98,0003.93
2023-10-23 08:37:00,SystemResetWarning,0823.8,5.01,000.00,028.9,027.3,000.0,037.4,030.5,12.9,0000.0,0014.64,0005.01,0003.94
2023-10-23 08:38:00,SystemResetWarning,0823.8,5.00,000.00,028.9,027.3,000.0,037.4,030.5,12.9,0000.0,0014.90,0005.03,0003.96
2023-10-23 08:39:00,SystemResetWarning,0823.8,5.00,000.00,028.9,027.4,000.0,037.4,030.5,12.9,0000.0,0014.84,0005.01,0003.97
2023-10-23 08:40:00,SystemResetWarning,0823.8,4.99,000.00,028.9,027.4,000.0,037.4,030.5,13.0,0000.0,0014.40,0004.95,0003.98
2023-10-23 08:41:00,SystemResetWarning,0823.8,5.00,000.00,028.9,027.4,000.0,037.4,030.5,12.9,0000.0,0013.36,0004.95,0003.98
2023-10-23 08:42:00,SystemResetWarning,0823.8,5.00,000.00,028.9,027.4,000.0,037.4,030.5,13.0,0000.0,0012.72,0004.97,0003.98
2023-10-23 08:43:00,SystemResetWarning,0823.8,5.01,000.00,028.9,027.4,000.0,037.4,030.5,13.0,0000.0,0012.42,0004.92,0004.00
2023-10-23 08:44:00,SystemResetWarning,0823.7,5.01,000.00,028.9,027.4,000.0,037.4,030.5,13.1,0000.0,0012.29,0004.92,0004.01
2023-10-23 08:45:00,SystemResetWarning,0823.7,5.01,000.00,028.9,027.4,000.0,037.4,030.5,13.1,0000.0,0012.34,0004.91,0004.04
2023-10-23 08:46:00,SystemResetWarning,0823.7,4.98,000.00,028.9,027.4,000.0,037.4,030.5,13.2,0000.0,0011.81,0004.89,0004.06
2023-10-23 08:47:00,SystemResetWarning,0823.7,5.00,000.00,028.9,027.4,000.0,037.4,030.5,13.2,0000.0,0011.30,0004.90,0004.05
2023-10-23 08:48:00,SystemResetWarning,0823.7,5.00,000.00,028.9,027.4,000.0,037.4,030.5,13.3,0000.0,0010.98,0004.92,0004.05
2023-10-23 08:49:00,SystemResetWarning,0823.8,5.00,000.00,028.9,027.4,000.0,037.4,030.5,13.4,0000.0,0010.90,0004.93,0004.05
2023-10-23 08:50:00,SystemResetWarning,0823.8,5.00,000.00,028.9,027.4,000.0,037.4,030.5,13.3,0000.0,0010.97,0004.96,0004.06
2023-10-23 08:51:00,SystemResetWarning,0823.8,5.00,000.00,028.9,027.4,000.0,037.4,030.6,13.0,0000.0,0011.06,0005.02,0004.05
2023-10-23 08:52:00,SystemResetWarning,0823.8,5.00,000.00,028.9,027.4,000.0,037.4,030.6,13.1,0000.0,0010.97,0005.03,0004.05
2023-10-23 08:53:00,SystemResetWarning,0823.8,5.00,000.00,028.9,027.4,000.0,037.4,030.6,13.1,0000.0,0010.79,0004.99,0004.04
2023-10-23 08:54:00,SystemResetWarning,0823.8,5.00,000.00,029.0,027.5,000.0,037.4,030.6,13.1,0000.0,0010.99,0005.00,0004.03
2023-10-23 08:55:00,SystemResetWarning,0823.8,4.98,000.00,029.0,027.5,000.0,037.4,030.6,13.1,0000.0,0011.15,0005.02,0004.01
2023-10-23 08:56:00,SystemResetWarning,0823.8,5.01,000.00,029.0,027.5,000.0,037.4,030.6,13.1,0000.0,0010.36,0005.04,0003.98
2023-10-23 08:57:00,SystemResetWarning,0823.8,5.00,000.00,029.0,027.5,000.0,037.4,030.6,13.0,0000.0,0010.18,0005.04,0003.97
2023-10-23 08:58:00,SystemResetWarning,0823.8,5.01,000.00,029.0,027.5,000.0,037.4,030.6,13.0,0000.0,0010.42,0005.02,0003.96
2023-10-23 08:59:00,SystemResetWarning,0823.8,5.01,000.00,029.0,027.5,000.0,037.4,030.6,12.9,0000.0,0011.08,0004.98,0003.95
